GFSMW_925_temp_000.txt.gz
Temp
32 31 29 29 28 27 26 26 25 25 24 24 25 25 26 26 25 25 23 23 24 23 23 23 23 22 23 23 22 22 23 23 23 23 25 24 23 23 23 23 23 23 23
33 31 30 29 29 28 27 26 25 25 24 25 26 26 26 27 26 26 24 24 24 23 23 23 23 22 24 22 22 21 23 23 23 24 24 27 25 24 24 23 23 22 23
33 32 31 30 29 29 27 27 26 25 25 25 25 25 24 24 25 25 24 24 23 23 22 22 23 22 22 24 22 22 22 24 22 21 23 26 27 25 24 23 23 22 22
34 33 32 30 30 29 28 27 26 25 25 25 26 25 26 27 28 27 27 26 24 23 23 22 22 22 23 22 22 21 21 21 24 23 22 21 22 26 26 25 23 23 23
34 33 33 31 30 30 29 28 26 26 25 25 25 26 25 27 27 27 25 24 24 23 23 22 22 22 22 21 21 21 20 22 22 23 23 22 23 22 24 25 25 24 23
35 34 32 31 31 30 29 28 27 26 26 25 25 25 26 26 27 26 26 25 25 24 23 22 22 22 22 21 21 20 20 21 21 22 22 23 24 24 24 24 24 24 23
35 34 33 32 31 30 30 29 27 26 26 26 25 25 25 25 26 26 26 26 26 25 24 22 21 22 21 21 21 20 21 21 21 21 22 23 23 23 23 23 24 24 24
37 35 34 33 31 31 30 29 28 27 26 26 25 25 25 25 26 26 26 26 26 25 24 22 22 22 22 21 21 21 21 21 21 21 21 22 23 23 22 22 22 24 24
37 36 35 33 32 31 30 29 28 27 27 27 25 25 25 25 26 26 25 25 25 25 23 22 22 22 22 21 21 21 21 21 21 21 21 21 22 23 22 22 21 22 23
37 37 36 34 33 32 31 29 29 28 27 27 26 26 25 25 25 26 25 25 24 23 23 22 22 22 21 21 20 22 21 21 21 22 22 21 22 22 22 22 22 22 22
37 37 37 36 34 33 32 31 29 28 28 28 27 26 26 26 25 25 23 23 22 22 22 22 22 22 21 21 20 21 22 21 21 21 21 21 21 21 23 23 22 22 22
38 37 38 36 35 33 33 32 31 30 29 28 27 27 27 26 25 24 23 21 21 21 21 21 20 21 21 21 21 21 22 21 21 21 21 21 22 22 21 21 21 22 21
37 37 37 36 35 34 33 33 32 31 30 29 28 27 27 26 25 23 20 22 21 23 22 23 22 20 21 21 21 21 21 21 21 21 21 21 22 21 22 21 21 22 21
36 35 36 35 34 34 33 32 33 32 31 31 29 28 27 26 24 21 22 23 23 23 21 23 22 20 21 21 21 21 21 21 21 21 21 21 21 21 21 21 21 20 20
35 34 35 34 33 33 32 31 32 31 31 31 30 28 26 23 21 20 21 24 24 23 24 23 20 20 20 20 21 21 21 21 21 21 21 21 21 21 21 21 21 20 20
35 34 34 34 33 32 31 31 30 30 30 29 29 28 24 22 20 19 20 22 24 23 24 22 20 19 19 20 21 21 21 21 21 21 21 20 20 20 20 20 19 18 18
36 34 34 34 33 32 30 30 29 29 29 27 27 26 23 21 19 19 20 21 21 21 22 20 19 19 19 21 21 21 20 21 20 20 19 19 19 19 19 19 18 18 18
36 35 35 34 31 31 31 30 28 28 27 26 26 25 22 21 20 19 20 20 21 20 20 19 19 19 20 19 20 20 19 20 20 19 19 19 18 18 18 19 18 18 18
36 34 34 32 30 31 30 29 28 27 26 25 25 23 21 20 20 20 20 20 20 20 21 20 20 19 20 19 20 20 20 20 19 20 20 21 19 17 18 16 17 18 18
34 33 32 30 30 30 29 28 28 27 26 25 24 22 21 21 20 20 20 19 20 20 20 20 20 20 20 20 21 21 21 19 20 19 19 19 18 17 16 15 17 17 17
31 31 31 31 29 29 29 29 28 28 27 25 23 21 21 21 20 20 19 20 20 20 20 20 20 20 19 20 20 20 19 19 18 17 18 18 16 16 15 15 15 16 14
31 32 31 29 29 29 29 29 28 27 25 24 21 20 21 21 21 19 19 19 19 19 20 19 19 19 20 20 19 18 18 18 18 18 20 17 16 14 14 14 14 13 13
32 31 30 28 28 28 28 28 25 24 24 21 20 20 20 20 20 19 19 19 19 21 20 19 21 22 21 18 18 17 16 17 17 19 17 15 14 14 13 13 12 12 14
30 30 29 29 26 25 25 24 22 22 22 21 20 19 20 19 19 19 19 20 21 20 20 21 21 21 20 19 16 15 15 16 16 15 15 14 13 14 14 13 11 13 14
28 28 28 27 25 24 23 23 22 22 22 20 20 20 19 19 20 19 20 21 19 20 22 21 20 21 21 21 19 18 19 18 17 16 16 16 17 17 16 15 15 14 14
26 26 26 25 24 23 23 23 21 21 21 20 21 21 21 21 20 19 17 18 18 18 18 18 19 19 20 19 17 16 16 15 14 15 18 18 17 17 17 16 15 15 14

GFSMW_925_temp_003.txt.gz
Temp
35 34 32 32 31 30 28 27 27 26 25 25 25 25 25 27 27 27 26 25 24 24 23 24 24 23 24 23 24 23 24 25 25 24 26 25 24 24 24 25 24 24 24
36 34 33 32 31 30 29 28 27 26 25 25 24 27 27 28 28 28 27 26 25 25 24 24 26 25 25 24 23 22 23 25 24 24 25 27 25 24 25 24 24 23 24
37 35 34 32 31 30 29 28 27 26 26 26 26 26 26 27 27 28 26 25 25 25 24 24 23 23 23 25 23 23 22 24 24 23 24 27 24 25 24 24 24 23 23
37 36 34 33 32 31 29 29 27 27 26 25 27 27 27 27 28 28 29 27 25 25 24 23 24 23 24 23 23 23 22 22 25 25 23 23 23 26 25 25 24 24 23
38 37 35 33 32 32 30 29 28 27 27 26 26 27 26 29 29 29 28 27 25 25 25 25 24 23 23 23 22 22 21 23 23 25 25 24 24 23 25 26 25 25 24
39 37 36 34 33 32 31 30 28 27 27 26 25 26 27 28 29 29 28 27 26 25 25 25 23 23 23 23 22 21 21 21 22 23 23 24 25 26 25 25 25 25 24
39 38 36 35 33 33 32 31 29 27 27 27 26 26 26 26 27 28 27 28 27 27 25 24 23 23 22 23 22 21 22 22 22 22 23 23 23 23 24 24 24 22 23
40 38 37 36 34 33 32 31 30 28 27 27 27 27 26 27 27 27 28 27 27 27 26 24 23 23 23 22 22 22 22 22 22 21 22 23 23 22 24 23 22 21 23
40 39 38 36 34 33 32 31 30 29 28 28 27 26 26 26 28 28 27 27 27 27 25 24 23 23 23 22 22 22 22 22 22 22 22 22 23 24 24 23 22 22 22
40 40 38 37 35 34 33 31 30 29 28 28 28 27 26 26 27 27 27 27 26 25 25 24 23 23 23 22 22 22 22 22 22 22 23 22 23 23 23 23 23 23 23
41 40 39 38 36 35 33 32 31 30 29 29 29 28 27 27 26 27 26 26 26 24 24 23 23 23 23 22 21 22 23 22 22 21 22 22 22 22 23 24 24 23 23
41 41 40 39 37 36 35 33 32 31 30 30 29 28 28 27 27 26 26 25 24 24 23 22 22 23 22 22 21 22 22 22 22 22 22 22 22 21 21 22 23 22 22
42 41 41 40 39 37 35 35 33 33 32 30 30 29 28 27 27 26 26 24 24 23 23 22 22 22 22 22 22 22 22 22 23 22 22 22 22 22 22 22 22 22 22
40 40 40 40 40 38 36 35 35 34 33 32 31 29 28 28 27 26 25 23 22 22 22 22 21 21 22 22 22 22 21 22 22 22 22 22 22 21 21 20 21 21 21
40 39 39 39 38 37 36 35 35 35 34 33 31 30 28 27 27 25 23 22 22 22 22 22 21 22 22 22 22 22 22 22 22 22 22 21 21 21 20 21 21 20 21
42 39 38 38 37 37 36 35 34 35 34 32 32 31 28 27 26 24 23 21 22 22 22 21 22 21 22 23 22 22 21 22 22 21 21 21 21 20 20 20 19 18 17
42 40 38 37 37 36 35 35 33 33 33 32 31 31 28 25 23 23 22 21 21 22 23 21 21 21 21 22 21 21 21 21 21 20 20 20 21 20 19 19 19 18 18
41 41 40 38 36 35 35 34 33 32 32 30 30 29 26 23 21 21 21 21 21 22 23 21 22 22 22 21 21 21 20 21 21 21 21 20 20 19 20 19 19 18 18
42 41 39 37 35 35 34 33 32 30 30 29 28 28 25 23 21 21 21 22 22 23 22 21 22 21 21 20 20 20 19 20 20 21 21 20 19 19 19 19 18 18 18
41 40 38 37 34 34 33 32 31 30 29 28 28 27 24 22 22 21 21 22 22 22 22 22 21 21 21 20 20 20 20 20 22 21 19 19 19 19 18 17 17 18 18
38 36 36 34 33 33 32 31 30 30 29 28 27 25 23 22 22 21 21 21 21 21 21 20 21 21 20 20 20 20 19 21 22 21 18 18 19 17 16 16 16 17 17
35 34 34 33 32 32 31 30 30 29 28 27 26 24 23 22 22 21 21 20 20 21 21 21 21 21 20 19 19 19 19 20 20 20 21 19 18 16 16 16 15 15 14
33 33 32 31 31 31 30 30 29 28 27 26 24 22 22 21 22 22 21 20 21 22 22 22 22 22 21 19 19 19 19 18 18 18 18 17 16 16 15 15 13 13 14
32 32 31 30 30 30 29 28 27 26 25 22 21 21 21 21 21 22 20 20 20 21 23 23 21 21 21 19 18 17 17 16 17 16 16 15 15 15 14 14 13 13 14
31 30 29 28 27 27 26 26 25 25 22 21 21 21 21 21 21 21 20 21 21 21 23 23 21 21 22 22 21 18 18 19 18 18 18 17 17 18 17 16 15 15 16
28 28 28 27 26 26 25 25 24 24 23 22 22 22 22 22 20 20 18 19 19 19 20 21 21 21 21 21 20 20 19 18 17 17 18 19 19 19 19 18 17 17 16

GFSMW_925_temp_006.txt.gz
Temp
35 35 33 33 32 30 29 28 27 28 27 26 25 25 25 26 26 27 27 25 25 25 24 24 24 24 24 24 24 23 23 24 25 24 24 24 24 25 25 25 24 24 24
36 35 34 33 32 31 29 28 27 27 27 26 26 25 25 26 26 27 27 26 25 25 24 24 24 24 25 24 23 22 23 24 25 24 24 22 24 24 24 24 24 24 23
37 35 34 33 33 31 29 28 27 26 26 26 26 26 25 26 27 27 27 26 26 25 24 24 24 24 24 24 23 23 23 23 24 24 23 22 22 23 24 24 24 23 23
37 36 35 33 33 32 30 28 27 26 25 26 25 25 26 27 28 28 27 27 26 25 25 24 24 23 24 24 23 23 22 23 23 23 24 23 23 22 22 23 23 23 22
38 37 35 34 33 32 30 29 27 26 26 25 26 26 27 27 28 29 28 27 25 25 25 24 24 23 23 24 23 22 22 22 23 23 24 24 23 24 23 21 23 23 23
39 38 36 34 33 33 31 29 28 26 26 25 26 26 26 27 28 29 27 26 25 25 25 25 24 23 23 23 22 22 22 22 22 23 23 24 24 23 24 23 24 24 24
39 38 36 35 33 33 32 30 28 27 26 26 25 26 26 27 27 28 28 27 27 25 25 25 24 23 23 23 22 22 22 21 22 22 22 23 24 23 23 23 22 22 22
41 39 37 35 34 33 32 31 29 27 27 26 25 25 26 26 26 27 28 28 28 27 26 25 24 23 23 23 22 22 22 22 22 22 22 22 22 23 23 23 22 21 22
40 39 38 36 34 33 32 31 29 27 27 27 26 25 25 26 26 28 28 27 27 27 26 25 24 23 23 22 22 22 22 22 22 22 22 22 22 23 24 24 23 22 20
41 40 39 37 35 34 32 32 30 28 27 27 26 26 25 26 27 28 28 27 27 28 26 24 24 23 23 23 22 22 22 22 22 22 22 22 22 23 23 23 23 23 22
41 41 39 38 36 34 33 32 31 29 28 27 27 27 26 26 26 27 27 27 27 27 26 25 24 23 23 23 22 22 22 22 22 22 22 22 22 22 22 23 23 23 23
41 41 40 38 36 35 34 32 31 30 29 28 28 27 27 26 26 26 27 27 27 26 26 24 23 23 23 22 22 22 22 22 21 21 22 22 22 22 22 22 22 22 23
40 40 41 38 37 35 34 33 32 31 30 29 28 28 27 27 26 26 26 26 26 25 25 24 23 23 23 22 22 21 22 22 22 22 22 22 22 22 21 21 21 21 21
38 40 40 38 37 36 34 34 33 32 31 29 29 29 28 27 27 26 26 26 26 25 24 23 22 22 22 22 21 21 21 22 22 22 22 22 22 21 21 21 21 20 20
39 39 39 37 35 35 34 34 34 33 32 30 30 29 28 28 27 27 26 26 25 24 24 23 22 22 22 22 22 21 21 21 22 22 22 22 22 21 21 20 20 19 19
40 38 37 37 36 35 34 34 34 33 33 32 30 30 29 28 27 27 26 25 25 23 23 22 22 21 22 22 22 22 22 22 22 22 22 22 21 21 21 20 20 20 20
39 39 38 37 37 36 34 34 33 34 33 32 31 31 29 28 27 27 26 25 24 23 22 22 22 21 21 23 23 22 22 22 22 22 21 21 21 21 20 20 20 20 20
39 39 40 38 37 38 36 35 34 34 33 32 31 30 29 28 27 26 26 24 22 22 22 22 21 21 21 22 22 22 22 21 21 21 21 21 20 20 20 20 19 19 19
39 38 40 40 37 37 37 35 34 33 32 32 31 31 29 27 26 25 23 23 22 22 21 22 21 21 21 21 21 21 21 20 20 21 21 20 20 20 21 19 18 18 18
40 39 40 39 36 36 36 34 33 33 32 31 31 30 27 25 23 23 22 22 22 22 22 22 21 21 22 21 21 20 20 20 20 20 20 20 20 20 20 18 17 17 17
39 39 38 36 35 35 35 33 33 32 32 31 29 28 25 24 22 21 21 21 22 22 22 22 21 21 21 20 20 20 20 20 20 20 20 20 20 19 19 18 17 16 16
37 37 35 34 34 34 33 31 30 30 30 28 28 26 23 23 22 22 22 22 21 21 21 21 21 21 20 20 20 20 19 19 19 20 20 19 19 19 17 16 16 15 15
36 36 33 32 32 31 30 30 29 29 28 27 26 24 22 22 22 21 21 21 21 21 21 21 20 21 21 20 20 19 19 19 18 18 18 17 17 17 16 16 16 15 15
32 32 31 30 29 29 29 28 28 27 26 25 23 22 22 22 22 21 21 22 22 22 22 22 21 21 21 19 20 19 19 18 17 16 17 17 17 16 16 16 16 15 15
28 29 29 29 29 28 27 27 26 25 23 23 22 21 21 22 22 21 21 21 21 22 22 22 22 22 21 19 20 19 18 17 17 17 17 16 16 16 16 15 15 16 15
26 26 27 26 26 26 26 26 24 23 22 22 22 21 21 21 20 19 18 19 20 20 21 21 21 21 21 21 20 20 19 19 19 18 19 18 19 19 19 16 16 16 16

GFSMW_925_temp_009.txt.gz
Temp
31 31 31 32 31 30 29 28 28 26 25 25 25 25 24 25 26 27 26 26 25 25 24 24 24 24 24 24 23 23 23 24 24 24 24 25 24 24 24 24 24 24 23
32 31 31 31 30 29 29 28 28 28 25 25 25 25 25 25 26 27 27 26 25 25 25 24 24 24 24 23 23 23 23 23 24 24 23 19 23 24 24 24 24 23 23
32 31 31 31 30 28 28 28 28 28 26 26 25 25 25 25 25 25 26 26 25 25 25 24 24 24 24 23 23 23 23 23 23 24 23 19 19 22 23 24 23 23 23
33 32 31 31 30 28 28 27 27 27 27 26 25 25 25 25 25 26 26 26 25 25 24 24 24 23 24 23 23 22 23 22 23 23 23 24 23 19 19 23 23 23 23
33 32 31 31 31 29 28 27 27 27 26 26 26 25 25 25 26 26 26 26 25 25 25 24 23 23 24 23 23 23 23 22 22 22 23 23 23 23 20 18 21 22 23
34 32 33 32 31 29 28 26 26 26 25 26 26 25 25 25 26 27 27 26 25 25 25 25 24 23 24 24 23 22 23 22 22 22 23 23 23 22 21 18 20 21 22
35 34 32 31 31 30 28 26 26 25 25 25 26 25 25 26 27 27 26 25 25 25 25 24 24 24 24 23 23 22 22 22 22 23 23 22 23 23 23 22 20 20 22
36 34 32 32 31 30 28 27 25 25 25 25 25 25 26 26 27 27 26 26 26 25 25 25 24 24 23 23 22 22 22 21 22 22 22 22 22 22 23 23 22 17 19
35 35 33 32 31 30 28 28 26 25 25 25 25 25 25 26 26 26 27 26 26 26 26 25 25 24 23 23 22 22 22 21 22 22 22 22 22 22 22 23 23 22 17
35 36 34 32 31 31 29 28 26 26 25 25 25 25 25 26 25 26 27 27 27 27 26 25 24 23 23 23 22 22 22 22 22 22 21 22 22 22 22 22 22 23 22
36 36 35 34 32 31 30 29 27 26 25 25 25 25 25 25 25 26 27 27 27 27 27 26 24 24 23 23 22 22 22 22 22 22 22 21 22 22 22 22 22 22 21
36 36 35 34 32 31 31 29 27 26 26 26 25 25 25 24 24 25 26 27 27 27 26 26 25 24 23 23 22 22 22 22 22 22 22 22 22 22 22 22 22 21 21
35 36 36 33 32 31 31 30 28 27 26 26 26 25 25 25 24 25 25 26 27 27 26 26 25 24 24 23 22 22 22 22 22 22 22 21 21 22 22 21 21 21 21
32 34 35 33 33 32 31 31 29 28 27 26 26 26 25 25 25 25 25 26 26 27 26 26 25 24 24 23 22 22 22 22 22 22 22 22 22 22 21 21 21 21 21
32 31 34 33 32 32 31 31 30 30 28 27 26 26 26 26 25 25 25 25 25 25 25 25 24 24 23 23 22 22 22 22 21 22 22 22 22 22 21 21 21 21 21
33 32 31 33 32 31 31 31 30 30 30 28 27 27 27 26 25 25 25 24 25 25 24 24 23 23 22 22 22 22 21 21 21 21 22 22 22 22 21 21 21 21 20
33 33 32 29 33 32 32 31 30 30 30 29 28 27 27 26 26 25 25 25 24 24 24 23 23 22 22 22 21 21 21 21 21 21 21 21 21 21 21 21 21 21 20
33 31 33 30 31 33 32 31 31 30 30 29 28 28 27 27 26 25 25 25 25 24 24 23 23 22 21 21 21 22 22 21 21 21 21 21 21 21 21 20 20 20 20
34 30 31 33 33 33 32 32 31 30 30 29 28 28 27 27 26 25 25 24 23 23 22 23 22 21 20 20 21 22 22 21 21 21 21 21 21 21 20 20 20 20 19
31 31 35 34 32 32 33 31 30 30 29 30 29 28 28 27 25 25 24 24 24 24 22 22 21 21 20 20 21 21 21 21 21 20 20 20 20 20 20 19 19 18 18
33 33 35 32 33 33 32 31 31 30 30 30 29 28 27 25 25 24 24 22 22 22 22 21 21 21 21 21 21 21 21 20 20 20 20 20 20 20 19 19 18 17 16
34 30 28 28 33 32 31 30 31 31 30 29 28 26 24 23 24 24 23 23 22 22 21 21 20 21 21 21 20 20 20 20 19 19 19 19 20 19 19 18 17 16 16
28 29 26 25 28 31 30 27 27 30 28 25 23 22 22 23 22 21 21 21 21 21 20 20 20 20 20 20 20 20 19 19 19 19 18 18 18 18 18 17 17 17 16
26 26 26 25 24 26 26 26 27 27 25 23 22 21 21 21 21 22 21 21 20 20 20 20 20 20 20 20 20 19 19 18 18 18 18 17 17 17 17 16 16 17 17
24 26 25 25 24 25 25 25 25 24 22 21 21 21 21 21 20 20 20 21 21 21 21 21 21 21 20 20 20 20 19 19 18 17 16 15 15 16 16 16 16 16 16
18 24 24 24 24 24 23 23 23 23 21 21 20 21 20 18 19 19 18 20 21 21 21 22 22 21 21 21 20 20 20 19 18 16 16 16 17 17 17 17 16 16 16